Tracking 19644 objects as of 26-Apr-2019
HD Live streaming from Space Station
objects crossing your sky now

MARISAT 1

Track MARISAT 1 now!
MARISAT 1 is classified as:


NORAD ID: 8697
Int'l Code: 1976-017A
Perigee: 36,050.8 km
Apogee: 36,139.0 km
Inclination: 11.6 °
Period: 1,451.5 minutes
Semi major axis: 42465 km
RCS: 5.8066 m2 (large)
Launch date: February 19, 1976
Source: United States (US)
Launch site: AIR FORCE EASTERN TEST RANGE (AFETR)
aabbcc
Your satellite tracking list
Your tracking list is empty




NASA's NSSDC Master Catalog

Two Line Element Set (TLE):
1  8697U 76017A   19115.46061125 -.00000231 +00000-0 +00000-0 0  9990
2  8697 011.6019 319.4242 0010388 118.1025 246.4972 00.99207042156215
Source of the keplerian elements: AFSPC